319  
ASUS41 KBTV 220130  
RWRBTV  
VERMONT REGIONAL WEATHER ROUNDUP  
NATIONAL WEATHER SERVICE BURLINGTON VT  
900 PM EDT MON AUG 21 2017  
 
NOTE: "FAIR" INDICATES FEW OR NO CLOUDS BELOW 12,000 FEET WITH NO  
SIGNIFICANT WEATHER AND/OR S TO VISIBILITY
.  
 
* THESE REPORTS ARE NOT UNDER NWS QUALITY CONTROL AND/OR DO NOT  
REPORT WEATHER SUCH AS PRECIPITATION AND FOG.
 
 
VTZ001>019-220200-  
_____VERMONT_____  
 
 
CITY SKY/WX TMP DP RH WIND PRES REMARKS
 
BURLINGTON CLEAR 75 66 73 S6 30.01S  
MONTPELIER CLEAR 70 61 73 S7 30.09F  
MORRISVILLE CLEAR 65 62 90 CALM 30.05S  
ST. JOHNSBURY* N/A 69 66 90 MISG 30.03S  
LYNDONVILLE* FAIR 69 61 76 CALM 30.08S  
MIDDLEBURY* FAIR 74 64 72 S5 30.04S  
RUTLAND* CLEAR 70 64 81 SE8 30.08S  
SPRINGFIELD CLEAR 67 63 87 N3 30.08S  
HIGHGATE* FAIR 71 67 87 CALM 30.00S  
NEWPORT* FAIR 69 62 79 S6 30.05S  
BENNINGTON MOCLDY 69 65 86 CALM 30.09R  
ISLAND POND* N/A 63 N/A N/A CALM N/A  
GALLUP MILLS* N/A 61 N/A N/A MISG N/A  
UNION VILLAGE* N/A 66 N/A N/A MISG N/A  
MT. MANSFIELD* N/A 63 N/A N/A W31 N/A  
 
_____LAKE CHAMPLAIN_____  
 
 
CITY SKY/WX TMP DP RH WIND PRES REMARKS
 
BURTON ISLAND* N/A 77 70 78 SW8 N/A  
COLCHESTER RF* N/A 75 70 83 S9 N/A  
DIAMOND ISL* N/A 75 66 73 SW6 N/A  
 

 
 
NYZ007-026>031-035-052-083-087-220200-  
_____NORTHERN NEW YORK_____  
 
 
CITY SKY/WX TMP DP RH WIND PRES REMARKS
 
PLATTSBURGH CLEAR 70 65 84 CALM 30.00R  
SARANAC LAKE CLEAR 66 62 87 CALM 30.07S  
MASSENA CLEAR 74 65 73 SW5 30.01R  
OGDENSBURG* FAIR 72 66 81 SW5 30.01S  
POTSDAM* PTCLDY 72 72 100 SW5 30.02R  
STARK FALLS* N/A 72 N/A N/A S5 N/A  
WATERTOWN CLEAR 70 67 90 S5 30.02F  
FT DRUM CLEAR 72 65 79 SW7 30.03S  
ALBANY PTCLDY 78 67 68 S7 30.06R  
GLENS FALLS CLEAR 70 65 84 CALM 30.05S  
 

 
NHZ002-005-011-220200-  
_____NEW HAMPSHIRE_____  
 
 
CITY SKY/WX TMP DP RH WIND PRES REMARKS
 
LEBANON CLEAR 69 64 84 S7 30.05F  
KEENE N/A N/A N/A N/A MISG N/A  
MT WASHINGTON PTCLDY 52 50 93 W36 N/A  
PLYMOUTH FAIR 64 62 93 CALM 30.06S  
WHITEFIELD CLEAR 69 59 70 CALM 30.05F  
 

 
 
_____REGIONAL QUEBEC LOCATIONS_____  
 
 
CITY SKY/WX TMP DP RH WIND PRES REMARKS
 
MONTREAL MOCLDY 77 66 69 SW7 29.97R  
QUEBEC CITY CLOUDY 73 64 73 SW10 29.92S THUNDER  
SHERBROOKE CLEAR 70 63 78 SW3 30.01R  
 
_____REGIONAL ONTARIO LOCATIONS_____  
 
 
CITY SKY/WX TMP DP RH WIND PRES REMARKS
 
OTTAWA PTCLDY 73 68 83 S8 29.98R  
 
______KEY______  
VSB - VISIBILITY IN MILES  
WCI - WIND CHILL INDEX  
HX - HEAT INDEX  

 
NNNN  
 
 
CLICK HERE TO GO TO PREVIOUS BULLETINS.

The Nexlab VT Page
The Nexlab NY Page Main Text Page